Sturgeon Bay, WI

7:26 PM CST on January 22, 2017 (GMT -0600)
Door County Cherryland

Weather History for KSUE - April, 2013

Change the Weather History Date:

Friday, April 12, 2013

  Actual Average Record
Temperature  
Mean Temperature 30 °F -  
Max Temperature 32 °F 49 °F 80 °F (1977)
Min Temperature 28 °F 31 °F 16 °F (1939)
Degree Days  
Heating Degree Days 35    
Moisture  
Dew Point 28 °F    
Average Humidity 91    
Maximum Humidity 93    
Minimum Humidity 86    
Precipitation  
Precipitation 0.12 in - - ()
Sea Level Pressure  
Sea Level Pressure 29.65 in    
Wind  
Wind Speed 7 mph (NE)    
Max Wind Speed 14 mph    
Max Gust Speed 30 mph    
Visibility 4 miles    
Events      
Averages and records for this station are not official NWS values.
T = Trace of Precipitation, MM = Missing Value Source: NWS Daily Summary

Daily Weather History Graph

Daily Weather History Graph

Search for Another Location

Airport or City:

Trip Planner

Search our weather history database for the weather conditions in past years. The results will help you decide how hot, cold, wet, or windy it might be!

Date:

Astronomy

Apr. 12, 2013 Rise Set
Actual Time 6:10 AM CDT 7:31 PM CDT
Civil Twilight 5:39 AM CDT 8:01 PM CDT
Nautical Twilight 5:03 AM CDT 8:38 PM CDT
Astronomical Twilight 4:24 AM CDT 9:17 PM CDT
Moon 7:14 AM CDT (4/12) 10:08 PM CDT (4/12)
Length of Visible Light 14h 22m
Length of Day
13h 21m
Waxing Crescent, 5% of the Moon is Illuminated
Apr 12
Waxing Crescent
Apr 18
First Quarter
Apr 25
Full
May 2
Last Quarter
May 9
New

Hourly Weather History & Observations

Time (CDT) Temp. Windchill Dew Point Humidity Pressure Visibility Wind Dir Wind Speed Gust Speed Precip Events Conditions
12:15 AM 30.2 °F 23.4 °F 28.4 °F 93% 29.70 in 2.0 mi East 6.9 mph 21.9 mph 0.01 in   Overcast
12:35 AM 30.2 °F 21.9 °F 28.4 °F 93% 29.69 in 1.8 mi East 9.2 mph 29.9 mph 0.01 in   Overcast
12:55 AM 30.2 °F 22.6 °F 28.4 °F 93% 29.68 in 1.8 mi ENE 8.1 mph - 0.01 in   Overcast
1:15 AM 30.2 °F 22.6 °F 28.4 °F 93% 29.67 in 3.0 mi ENE 8.1 mph - N/A   Overcast
1:35 AM 30.2 °F 22.6 °F 28.4 °F 93% 29.66 in 4.0 mi ENE 8.1 mph - N/A   Overcast
1:55 AM 30.2 °F 22.6 °F 28.4 °F 93% 29.65 in 4.0 mi ENE 8.1 mph - N/A   Overcast
2:15 AM 30.2 °F 23.4 °F 28.4 °F 93% 29.65 in 2.5 mi ENE 6.9 mph - N/A   Overcast
2:35 AM 30.2 °F 23.4 °F 28.4 °F 93% 29.65 in 1.5 mi ENE 6.9 mph - N/A   Overcast
2:55 AM 30.2 °F 24.3 °F 28.4 °F 93% 29.64 in 1.5 mi ENE 5.8 mph - 0.01 in   Overcast
3:15 AM 30.2 °F 24.3 °F 28.4 °F 93% 29.63 in 1.5 mi ENE 5.8 mph - N/A   Overcast
3:35 AM 30.2 °F 24.3 °F 28.4 °F 93% 29.63 in 2.0 mi ENE 5.8 mph - N/A   Overcast
3:55 AM 30.2 °F 23.4 °F 28.4 °F 93% 29.63 in 3.0 mi ENE 6.9 mph - N/A   Overcast
4:15 AM 30.2 °F 22.6 °F 28.4 °F 93% 29.62 in 2.5 mi ENE 8.1 mph - N/A   Overcast
4:35 AM 30.2 °F 24.3 °F 28.4 °F 93% 29.62 in 3.0 mi ENE 5.8 mph - N/A   Overcast
4:55 AM 30.2 °F 23.4 °F 28.4 °F 93% 29.61 in 3.0 mi ENE 6.9 mph - N/A   Overcast
5:15 AM 30.2 °F 22.6 °F 28.4 °F 93% 29.59 in 2.5 mi ENE 8.1 mph - N/A   Overcast
5:35 AM 30.2 °F 24.3 °F 28.4 °F 93% 29.59 in 2.5 mi ENE 5.8 mph - N/A   Overcast
5:55 AM 30.2 °F 23.4 °F 28.4 °F 93% 29.59 in 3.0 mi ENE 6.9 mph - N/A   Overcast
6:15 AM 30.2 °F 22.6 °F 28.4 °F 93% 29.59 in 2.5 mi ENE 8.1 mph - N/A   Overcast
6:35 AM 30.2 °F 22.6 °F 26.6 °F 86% 29.60 in 1.5 mi ENE 8.1 mph - N/A   Overcast
6:55 AM 30.2 °F 23.4 °F 26.6 °F 86% 29.60 in 0.8 mi ENE 6.9 mph - N/A   Overcast
7:15 AM 30.2 °F 24.3 °F 28.4 °F 93% 29.60 in 1.0 mi ENE 5.8 mph - N/A   Overcast
7:35 AM 30.2 °F 24.3 °F 28.4 °F 93% 29.60 in 1.0 mi ENE 5.8 mph - N/A   Overcast
7:55 AM 30.2 °F 22.6 °F 26.6 °F 86% 29.60 in 1.0 mi ENE 8.1 mph - N/A   Overcast
8:15 AM 30.2 °F 23.4 °F 28.4 °F 93% 29.59 in 1.5 mi ENE 6.9 mph - N/A   Overcast
8:35 AM 30.2 °F 24.3 °F 28.4 °F 93% 29.59 in 1.2 mi ENE 5.8 mph - N/A   Overcast
8:55 AM 30.2 °F 25.4 °F 28.4 °F 93% 29.59 in 1.0 mi ENE 4.6 mph - N/A   Overcast
9:15 AM 30.2 °F 23.4 °F 28.4 °F 93% 29.59 in 3.0 mi ENE 6.9 mph - N/A   Overcast
9:55 AM 30.2 °F 24.3 °F 28.4 °F 93% 29.59 in 2.0 mi ENE 5.8 mph - 0.01 in   Overcast
10:15 AM 30.2 °F 25.4 °F 28.4 °F 93% 29.60 in 1.5 mi NE 4.6 mph - 0.01 in   Overcast
10:35 AM 30.2 °F 25.4 °F 28.4 °F 93% 29.59 in 1.2 mi NE 4.6 mph - 0.01 in   Overcast
10:55 AM 30.2 °F 26.7 °F 28.4 °F 93% 29.60 in 1.2 mi NE 3.5 mph - 0.02 in   Overcast
11:15 AM 32.0 °F 27.5 °F 28.4 °F 87% 29.60 in 1.2 mi ENE 4.6 mph - 0.01 in   Overcast
11:35 AM 32.0 °F 27.5 °F 28.4 °F 87% 29.60 in 1.2 mi NE 4.6 mph - 0.02 in   Overcast
11:55 AM 32.0 °F 27.5 °F 28.4 °F 87% 29.60 in 1.0 mi NNE 4.6 mph - 0.03 in   Overcast
12:15 PM 32.0 °F 26.4 °F 28.4 °F 87% 29.60 in 1.5 mi NNE 5.8 mph - 0.02 in   Overcast
12:35 PM 32.0 °F 27.5 °F 30.2 °F 93% 29.60 in 1.2 mi NNE 4.6 mph - 0.02 in   Overcast
12:55 PM 32.0 °F 27.5 °F 28.4 °F 87% 29.60 in 2.5 mi North 4.6 mph - 0.03 in   Overcast
1:15 PM 32.0 °F 26.4 °F 28.4 °F 87% 29.60 in 1.0 mi North 5.8 mph - 0.01 in   Overcast
1:35 PM 30.2 °F 23.4 °F 28.4 °F 93% 29.60 in 1.5 mi North 6.9 mph - 0.01 in   Overcast
1:55 PM 30.2 °F 23.4 °F 28.4 °F 93% 29.61 in 2.0 mi North 6.9 mph - 0.01 in   Overcast
2:15 PM 30.2 °F 22.6 °F 28.4 °F 93% 29.61 in 1.2 mi North 8.1 mph - N/A   Overcast
2:35 PM 30.2 °F 22.6 °F 28.4 °F 93% 29.62 in 1.2 mi North 8.1 mph - N/A   Overcast
2:55 PM 30.2 °F 22.6 °F 28.4 °F 93% 29.63 in 1.8 mi North 8.1 mph - N/A   Overcast
3:15 PM 30.2 °F 22.6 °F 28.4 °F 93% 29.64 in 1.8 mi North 8.1 mph - N/A   Overcast
3:35 PM 30.2 °F 22.6 °F 28.4 °F 93% 29.64 in 2.0 mi North 8.1 mph - N/A   Overcast
3:55 PM 32.0 °F 25.6 °F 28.4 °F 87% 29.64 in 3.0 mi North 6.9 mph - N/A   Overcast
4:15 PM 32.0 °F 24.8 °F 28.4 °F 87% 29.65 in 5.0 mi North 8.1 mph - N/A   Overcast
4:35 PM 32.0 °F 22.1 °F 28.4 °F 87% 29.65 in 5.0 mi North 13.8 mph - N/A   Overcast
4:55 PM 30.2 °F 20.2 °F 28.4 °F 93% 29.67 in 3.0 mi NNW 12.7 mph - N/A   Overcast
5:15 PM 30.2 °F 20.2 °F 28.4 °F 93% 29.67 in 5.0 mi North 12.7 mph - N/A   Overcast
5:35 PM 30.2 °F 19.8 °F 28.4 °F 93% 29.69 in 9.0 mi North 13.8 mph - N/A   Mostly Cloudy
5:55 PM 30.2 °F 20.2 °F 28.4 °F 93% 29.69 in 10.0 mi North 12.7 mph - N/A   Overcast
6:15 PM 30.2 °F 21.3 °F 26.6 °F 86% 29.70 in 9.0 mi North 10.4 mph - N/A   Overcast
6:35 PM 30.2 °F 20.8 °F 26.6 °F 86% 29.70 in 10.0 mi North 11.5 mph - N/A   Overcast
6:55 PM 30.2 °F 22.6 °F 26.6 °F 86% 29.70 in 10.0 mi North 8.1 mph - N/A   Overcast
7:15 PM 30.2 °F 22.6 °F 26.6 °F 86% 29.71 in 10.0 mi North 8.1 mph - N/A   Overcast
7:35 PM 30.2 °F 22.6 °F 26.6 °F 86% 29.71 in 10.0 mi North 8.1 mph - N/A   Overcast
7:55 PM 30.2 °F 24.3 °F 26.6 °F 86% 29.71 in 10.0 mi NNW 5.8 mph - N/A   Overcast
8:15 PM 30.2 °F 25.4 °F 26.6 °F 86% 29.72 in 10.0 mi NNW 4.6 mph - N/A   Overcast
8:35 PM 30.2 °F 26.7 °F 26.6 °F 86% 29.72 in 10.0 mi North 3.5 mph - N/A   Overcast
8:55 PM 30.2 °F 26.7 °F 26.6 °F 86% 29.72 in 10.0 mi NNW 3.5 mph - N/A   Overcast
9:15 PM 30.2 °F - 26.6 °F 86% 29.73 in 10.0 mi Calm Calm - N/A   Overcast
9:35 PM 30.2 °F - 26.6 °F 86% 29.73 in 10.0 mi Calm Calm - N/A   Overcast
9:55 PM 30.2 °F - 26.6 °F 86% 29.73 in 10.0 mi Calm Calm - N/A   Overcast
10:15 PM 30.2 °F - 26.6 °F 86% 29.73 in 10.0 mi Calm Calm - N/A   Overcast
10:35 PM 30.2 °F - 26.6 °F 86% 29.73 in 10.0 mi Calm Calm - N/A   Overcast
10:55 PM 28.4 °F - 26.6 °F 93% 29.73 in 10.0 mi Calm Calm - N/A   Overcast
11:15 PM 28.4 °F - 26.6 °F 93% 29.73 in 9.0 mi Calm Calm - N/A   Overcast
11:35 PM 28.4 °F 24.6 °F 26.6 °F 93% 29.73 in 1.2 mi WSW 3.5 mph - N/A   Overcast
11:55 PM 28.4 °F 23.3 °F 26.6 °F 93% 29.73 in 8.0 mi SSW 4.6 mph - N/A   Overcast